DELTA 1 DEB

Satellite information

Favourite Embed

Satellite Type and Status

DEBRISIN ORBIT

Key statistics

Satellite DELTA 1 DEB at a glance.

Uptime

18448

Days in orbit

Revolutions

≈ 13.6

Per day

Orbit

SSO

Sun Synchronous Orbit

Inclination

99.9

Latest

Satellite identification and parameters

Extended collection of information and parameters for DELTA 1 DEB.

Object identification

Identified? True

Debris? True

Object name: DELTA 1 DEB

International designator: 1975-052FF

Object number (NORAD): 21471

Object ID (CCSDS): 21471

Country: UNITED STATES OF AMERICA (US)

Current information (Y/N): Y

RCS size: SMALL

Orbital parameters

Period: 106.076 minutes

Inclination: 99.9279 deg

SMA: 7422.881 km

Apoapsis: 1229.509 km

Periapsis: 859.983 km

RAAN: 135.587 deg

Eccentricy: 0.024891

Argument of periapsis: 98.4047 deg

Mean anomaly: 57.4619 deg

Mean motion: 13.57512965 rev/day

Mean motion (dot): 0.00000624 rev/day2

B* drag term: 0.00076217 1/REarth

Two-line elements (TLE)

Creation date: Dec. 12, 2025, 7:16 a.m.

Reference frame: TEME

Reference center: EARTH

Epoch: Dec. 11, 2025, 8:50 p.m. UTC

TLE line 0: 0 DELTA 1 DEB

TLE line 1: 1 21471U 75052FF 25345.86859036 .00000624 00000-0 76217-3 0 9996

TLE line 2: 2 21471 99.9279 135.5870 0248910 98.4047 57.4619 13.57512965711035

Live tracking on map

Real-time ground track for satellite DELTA 1 DEB.

In-orbit conjunctions

A list of the most updated potential collisions computed for object DELTA 1 DEB.

Target Orbit TCA Probability of collision Miss distance Type
COSMOS 1959 LEO 2025-11-08 06:04:12 0.0002292665 326.0 (m) PAYLOAD
NADEZHDA 1 LEO 2025-01-02 14:42:06 0.0001941087 175.0 (m) PAYLOAD
CZ-6A DEB SSO 2024-07-23 15:25:58 0.000158122 170.0 (m) DEBRIS

Associated space launch

Experimental meteorological satellite

DELTA 1 DEB was lifted into orbit during the mission ‘Delta 2910 | Nimbus 6’, on board a Delta 2910 space rocket.

The launch took place on June 12, 1975, 8:12 a.m. from Space Launch Complex 2W.

For more information about the launch, click the button.

Launch to space Delta 2910 | Nimbus 6
Delta 2910 | Nimbus 6

Agency: N/A

Status: Launch Successful

Launch date: June 12, 1975, 8:12 a.m. UTC

Rocket: Delta 2910

Launch pad: Space Launch Complex 2W

Location: Vandenberg SFB, CA, USA

...

Latest news about this satellite

There are no fresh news available about this satellite. Check back as we update our databases every day.


Newsletter sign-up

Weekly statistics, charts and insights to help you stay on top of the space industry.